SCOUT A DEB, 2140

Orbit data source: Space-Track

SCOUT A DEB, 2140 is space debris in LEO originally from a launch on Fri, 28 Jan 1966 UTC launched from the Air Force Western Test Range (AFWTR). Debris objects in space refer to the collection of defunct objects orbiting the Earth. Examples of debris include non-operational satellites, rocket bodies, and fragments generated from explosions, collisions, or faulty payload assembly.

Loading next visibility...
SCOUT A DEB details
Identifier
2140, 1966-005C
Orbit
LEO
Last TLE update18 hours ago
Origin
Flag of USUSN BuWeps (US)
ManufacturerUnknown
MissionSpacecraft
Bus & MotorUnknown
MassUnknown
Launch date (UTC)
1966-01-28 (59 years ago)
Launch vehicleUnknown
Launch site
Air Force Western Test Range (AFWTR)
Object type
Payload
Rocket body
Debris
Shape & HBRUnknown
Radar Cross SectionSmall (<0.1 m²)

Expand to show TLE details & history

TLE from 18 hours ago
0 SCOUT A DEB
1 02140U 66005C   25044.04701886  .00000321  00000-0  36708-3 0  9996
2 02140  89.9381  52.9431 0317692 157.3002 204.2563 13.48131872892545
Epoch: 2025-02-13T01:07Z
Definitive object data (Epoch: 2025-02-13T01:07:42.429Z)
Latitude-0.00005°
Longitude-107.31244°
Altitude1,299.354 km
Speed7.101 km/s
True Right ascension03h 31m 46s
True Declination0° 00' 00"
Sunlit
Object was in daylight at TLE epoch
Visualization TLE readout
Latitude67.90132°
Longitude72.53114°
Altitude914.024 km
Speed7.489 km/s
Apparent Right ascension11h 54m 17s
Apparent Declination24° 02' 32"
Sunlit
Object is in daylight
Visualization observer readout
Local Sidereal Time22:05:54
Azimuth333.499° NNW
Elevation-21.233°
Doppler factor1
Orbital elements
Apogee altitude1,313.006 km
Perigee altitude839.37 km
Semi-major axis7,454.325 km
Eccentricity0.0317692
Inclination89.9381°
RAAN52.9431°
Arg. of periapsis157.3002°
True anomaly202.8132°
Mean anomaly204.2563°
Eccentric anomaly203.52962°
Mean motion3.37233 °/min
BSTAR0.00036708
Orbital period106.75 mins
Loading maneuver chart data...
Loading historical data...
Loading historical data...
Loading historical data...
Loading historical data...
Loading historical data...
Loading historical data...
Loading historical data...

SCOUT A DEB Visibility forecast

Observer location: undefined°, undefined

Span
Click to sort rows by Start time (UTC) header in descending order
Start Az.
Max El. time (UTC)
Max El. Az.
Max El.
End time (UTC)
End Az.
13 mins2025-02-14 00:23:03.113Z159.434° S2025-02-14 00:30:03.113Z67.252° ENE40.725°2025-02-14 00:36:03.113Z6.173° NNE
9 mins2025-02-14 02:12:03.113Z234.55° WSW2025-02-14 02:16:03.113Z272.544° WNW21.873°2025-02-14 02:21:03.113Z324.534° NNW
6 mins2025-02-14 11:37:03.113Z47.857° ENE2025-02-14 11:39:03.113Z73.71° E18.677°2025-02-14 11:43:03.113Z123.981° SE
8 mins2025-02-14 13:23:03.113Z340.376° N2025-02-14 13:26:03.113Z290.887° WNW34.734°2025-02-14 13:31:03.113Z209.745° SW
|